Theta_e
317 317 323 327 332 330 335 341 341 345 346 347 343 347 344 341 342 341 336 328 324 329 333 337 336 329 324 323 322 321 321 321 320 319 319 321 322 322 324 326 327 328 329 331 331 332 334 335 336
321 324 325 325 331 336 339 339 343 340 342 349 350 348 344 343 340 338 337 330 323 331 334 336 335 328 324 323 323 322 322 322 322 322 321 322 323 323 325 327 328 329 331 331 332 332 334 336 337
324 324 326 320 328 335 342 339 338 339 347 346 346 347 346 338 338 335 334 327 325 330 333 335 333 328 325 324 323 323 322 323 323 323 323 323 323 324 325 327 329 330 331 331 332 333 334 336 337
323 324 321 321 325 326 340 339 337 339 342 344 344 345 346 343 337 336 337 325 325 329 333 334 332 328 326 324 324 323 323 323 323 323 323 324 324 325 325 326 328 330 331 331 332 332 333 334 336
323 322 317 320 322 323 334 339 338 336 336 340 342 341 341 342 341 337 327 321 324 328 332 333 330 328 327 325 324 324 323 323 323 323 323 324 324 325 325 325 326 327 328 329 329 330 330 332 334
322 319 318 320 322 322 336 338 337 336 335 337 341 341 341 343 344 334 324 321 324 328 331 331 330 328 327 325 325 324 324 323 323 323 323 323 324 324 324 324 324 325 325 325 325 326 326 327 329
319 315 319 321 322 321 337 338 336 334 334 333 339 338 341 342 338 336 329 321 322 324 326 327 327 327 326 325 325 324 324 324 324 324 324 323 323 324 324 324 324 324 324 323 323 324 326 327 327
322 315 321 321 322 335 336 338 335 334 334 333 338 338 339 339 338 337 328 321 321 323 324 324 324 324 325 325 324 324 324 324 323 324 324 324 323 324 324 323 324 324 324 323 329 330 332 333 336
321 316 318 322 325 332 337 336 338 337 336 334 332 337 339 338 338 336 328 321 321 321 322 322 322 322 322 323 323 323 323 323 323 323 323 323 324 323 323 323 323 324 324 323 324 336 339 339 341
317 315 319 319 323 324 336 337 337 337 335 335 333 338 340 338 338 337 336 329 325 327 323 321 321 321 321 321 321 322 322 322 322 323 323 323 323 323 325 323 327 332 331 336 325 324 327 334 341
317 316 317 320 321 322 332 336 337 336 336 336 333 341 340 339 338 337 337 337 338 338 334 328 321 321 321 321 321 321 321 321 321 322 322 323 323 323 327 331 335 333 338 340 337 334 337 335 340
317 317 318 319 320 321 330 336 336 337 336 334 335 341 341 339 338 337 337 337 338 339 337 334 326 322 322 322 322 324 338 330 322 321 321 321 322 322 326 335 339 339 338 340 341 341 341 341 342
315 316 319 319 319 319 320 332 335 337 334 335 333 340 340 339 339 338 337 337 337 340 340 339 335 329 326 326 325 340 342 337 328 336 329 325 327 329 326 335 337 339 341 340 340 340 339 338 339
317 318 319 320 321 319 320 324 333 337 337 336 335 334 339 338 339 338 338 338 338 339 340 339 340 339 339 336 336 341 343 342 341 343 342 342 342 342 337 334 336 337 339 339 339 338 338 338 338
319 319 316 318 320 318 320 320 319 327 334 337 337 335 336 339 339 338 339 339 339 340 341 341 341 342 343 341 341 342 344 344 344 343 343 343 343 343 342 340 339 338 338 338 338 339 338 338 337
317 316 317 316 318 320 320 317 318 323 330 338 339 339 340 340 342 341 342 342 342 340 340 341 343 343 343 342 343 343 344 345 345 346 344 344 344 344 342 342 339 339 340 340 339 338 338 338 338
312 316 317 318 317 319 319 318 318 321 325 331 336 340 343 344 344 345 344 344 344 341 340 338 343 344 343 343 344 344 348 348 346 346 346 346 346 345 339 341 341 342 341 342 341 339 339 341 340
316 317 318 318 318 319 318 317 315 320 329 340 342 346 346 344 344 344 343 343 343 341 341 341 344 344 343 343 345 348 349 348 348 346 344 344 345 346 345 342 342 343 344 343 343 340 339 341 341
318 319 318 318 319 320 318 317 318 318 338 347 350 351 352 350 348 346 343 343 342 342 342 343 344 344 343 344 346 349 347 346 346 347 347 347 346 346 345 343 338 344 345 345 343 341 340 341 341
317 318 317 317 319 318 318 318 316 317 332 346 348 350 352 353 353 352 351 349 348 347 345 345 344 344 344 346 347 348 347 347 348 346 345 343 346 346 345 343 344 344 342 343 342 339 339 338 336
316 317 317 317 319 318 319 318 320 320 324 342 346 350 351 352 353 353 353 353 351 349 349 350 350 350 349 350 351 349 349 349 349 347 346 345 344 345 343 343 340 341 338 337 336 334 332 330 329
317 316 318 319 319 319 318 318 317 319 322 334 342 346 350 351 352 353 353 353 354 354 353 352 351 352 351 351 352 351 348 347 346 346 345 343 342 341 340 338 337 332 325 321 321 319 317 317 321
317 318 317 318 317 319 319 318 318 320 320 327 338 343 345 347 350 352 352 352 351 351 350 349 347 346 344 346 346 346 344 343 345 343 341 338 337 332 325 320 314 313 312 311 311 311 311 312 316
319 320 319 316 315 318 318 318 318 318 321 319 329 341 343 344 345 347 348 348 347 348 347 345 343 344 343 345 344 346 343 345 342 338 335 329 317 314 312 312 311 311 310 309 308 309 309 311 314
320 318 319 321 320 322 318 317 319 319 317 319 323 336 342 343 343 341 338 339 340 338 337 335 336 339 339 341 342 343 342 341 336 331 325 320 314 313 312 311 310 309 308 307 306 305 306 307 309
317 317 319 322 321 323 318 320 321 319 321 322 323 325 338 342 342 341 339 339 336 334 334 333 333 333 336 333 328 329 329 328 326 322 320 314 313 312 312 312 312 311 309 307 305 304 304 304 305
322 319 317 319 319 319 319 318 320 320 320 326 322 332 339 341 342 341 339 337 334 333 330 327 326 324 323 322 322 322 324 323 321 319 314 313 312 312 312 312 312 310 308 304 303 303 303 303 303
321 320 323 317 322 322 320 319 320 320 320 323 329 333 339 340 340 339 339 336 333 327 324 322 322 321 321 320 320 320 321 320 318 315 313 312 312 312 312 312 312 310 306 303 302 302 303 303 303
322 321 320 320 318 326 326 324 316 318 317 322 329 336 339 340 339 340 339 335 328 324 323 323 321 319 318 320 320 320 319 317 316 314 313 312 312 312 312 312 312 311 306 302 302 301 301 302 303
318 317 316 322 322 319 319 320 322 330 330 328 335 338 339 337 335 338 338 331 325 324 324 322 321 317 317 319 320 320 319 315 314 313 313 313 313 313 313 312 312 310 306 302 301 301 300 302 305
Wind_Speed
16 17 13 5 3 5 3 4 3 2 6 6 11 4 3 5 2 4 18 26 24 26 26 23 19 16 16 16 16 16 16 16 16 15 15 15 15 16 16 16 17 17 16 16 16 15 15 13 12
15 14 3 5 4 4 4 3 5 8 12 22 15 6 5 3 2 13 26 25 27 27 26 24 20 17 16 16 16 16 16 16 15 15 15 15 15 14 14 15 15 15 15 15 14 13 12 11 10
13 11 1 4 3 4 5 5 9 9 16 18 12 8 3 4 10 28 21 25 28 27 25 23 20 18 18 17 16 15 15 15 14 14 14 13 13 13 13 12 12 12 13 13 12 11 10 9 7
12 3 4 4 3 4 8 10 16 8 7 4 21 9 6 3 20 20 19 28 28 26 25 23 20 19 18 17 16 15 14 14 13 13 12 12 12 12 11 11 11 11 11 11 10 9 7 5 4
8 3 4 2 3 2 2 24 12 5 5 6 4 4 5 15 8 16 24 27 27 27 25 23 21 19 18 17 15 14 13 12 12 11 11 11 11 11 10 10 9 9 9 9 7 6 4 3 2
3 3 4 3 4 4 2 2 3 6 8 7 13 9 3 11 15 22 23 24 25 26 25 23 21 19 18 16 15 13 12 11 10 10 9 9 9 9 9 8 8 8 8 7 6 5 4 3 2
4 4 1 3 6 5 2 8 4 5 3 4 8 5 7 18 20 18 20 22 21 22 23 23 22 20 18 16 15 13 12 11 10 9 8 7 7 7 7 7 7 7 7 7 6 6 5 4 2
1 4 0 1 3 4 4 3 6 3 2 7 7 6 8 27 22 17 19 21 21 21 21 21 20 20 18 17 15 13 12 11 10 8 8 7 6 6 5 5 5 5 6 5 5 5 5 4 3
3 4 1 3 1 2 1 2 7 5 3 4 4 8 18 29 26 23 23 25 26 24 23 22 20 19 17 16 15 14 12 11 10 9 8 7 6 5 5 4 4 4 4 2 1 3 2 0 2
4 4 8 5 4 1 10 7 6 2 3 2 8 10 25 33 28 28 28 27 26 24 24 23 21 19 17 15 14 13 13 12 10 9 8 7 7 6 6 6 5 2 1 2 2 3 5 6 4
3 5 5 8 11 6 12 6 7 3 4 17 26 26 30 32 31 28 27 24 23 21 21 20 21 20 17 15 14 13 11 11 10 10 9 8 8 8 8 6 4 3 2 2 3 5 6 9 9
2 8 7 7 2 2 3 10 7 17 10 14 20 33 35 34 34 31 30 29 28 26 22 18 20 20 18 17 15 12 8 10 10 9 9 9 9 10 9 8 7 5 4 5 5 7 10 11 13
5 6 11 13 18 12 12 17 11 20 16 13 18 33 36 37 34 33 32 30 29 28 24 21 20 18 18 18 17 14 8 6 7 6 6 6 6 7 11 9 9 9 9 9 9 11 12 13 14
3 7 15 10 21 13 12 12 6 23 20 15 23 28 30 36 36 33 34 35 35 31 26 24 23 18 18 18 18 13 9 6 7 5 4 4 4 5 7 10 11 12 13 12 14 15 15 16 16
4 5 6 4 8 5 10 4 10 12 24 20 22 25 24 31 36 37 35 33 36 33 29 27 24 20 17 17 16 15 10 8 8 8 8 8 9 8 8 11 13 14 16 17 17 15 15 15 15
5 3 3 6 3 4 6 9 10 10 21 23 25 25 25 30 31 37 35 35 35 36 28 28 28 25 21 21 17 17 14 14 11 11 12 12 14 14 13 13 16 17 18 19 22 22 22 20 19
7 3 2 8 5 4 3 7 8 9 21 27 25 28 28 29 32 35 37 41 40 37 29 30 32 27 22 22 18 16 14 19 17 15 13 12 14 15 16 19 19 20 21 21 23 24 20 19 21
3 2 3 4 5 1 5 10 8 9 24 28 30 29 31 31 30 31 31 33 33 37 32 29 32 29 26 21 17 17 16 15 16 16 17 17 17 17 21 20 21 23 19 17 18 21 24 23 24
3 3 5 6 3 3 9 12 17 12 21 18 26 31 34 34 30 27 29 32 35 38 35 30 29 27 30 26 22 20 18 19 22 23 21 18 18 19 22 18 19 18 20 23 23 17 18 17 21
5 4 11 8 5 5 12 12 15 9 21 35 31 29 37 39 34 33 32 32 32 33 31 31 32 30 30 26 24 25 20 19 20 20 21 18 17 17 16 15 16 15 11 17 22 17 20 17 17
6 5 8 9 10 6 6 8 5 3 6 25 31 42 45 48 43 38 35 34 32 31 30 29 27 26 29 29 29 25 22 20 16 16 13 13 12 11 8 11 10 16 17 15 14 16 16 15 14
6 8 12 10 1 6 3 6 6 3 6 8 18 28 41 43 42 42 39 35 32 31 28 22 21 22 22 21 20 20 21 18 13 10 8 7 7 9 11 11 12 9 7 9 11 12 12 12 11
10 5 8 11 6 2 4 3 8 2 3 8 16 28 36 37 40 44 41 37 33 31 28 24 22 21 20 20 15 15 16 17 15 11 8 5 4 2 3 3 5 5 7 9 10 9 10 9 8
5 4 1 3 3 4 8 7 6 5 7 6 12 26 31 40 38 38 35 33 33 31 28 25 22 20 19 18 19 17 18 16 14 12 8 8 9 10 9 8 7 8 9 10 11 10 10 9 8
5 5 4 5 2 7 6 4 8 7 9 10 13 33 42 41 40 36 36 35 33 30 27 24 21 19 17 15 15 15 14 14 12 11 9 9 9 10 9 8 8 9 11 13 13 12 12 12 12
7 9 6 6 4 9 3 7 7 12 19 16 23 29 36 41 43 42 41 36 33 31 28 25 23 21 19 16 15 14 13 13 13 11 9 10 9 9 8 7 9 11 14 15 14 13 14 14 13
4 4 7 4 4 2 5 8 6 6 9 10 17 24 36 45 47 48 42 36 34 31 29 27 26 22 20 17 15 14 14 13 13 12 12 11 8 5 4 4 7 11 15 16 15 14 13 14 14
8 5 6 1 4 8 5 6 6 7 11 9 6 21 27 30 34 42 42 37 33 30 28 27 24 21 20 18 16 17 17 14 14 14 12 10 6 3 1 5 8 12 15 14 15 15 15 14 14
5 3 2 3 5 9 11 8 6 8 9 10 8 22 36 42 45 47 43 36 33 30 29 26 24 23 19 21 20 19 17 17 17 13 12 9 6 4 5 6 9 14 15 15 15 16 16 16 16
5 9 7 3 7 3 2 8 4 4 3 6 10 17 21 24 27 35 36 32 31 30 28 25 23 22 25 23 22 20 17 17 15 14 12 9 6 6 8 9 11 15 18 17 17 17 17 16 17
Wind_Direction
344 329 336 101 65 68 0 328 107 293 327 77 115 150 147 33 157 209 150 165 168 166 160 162 167 160 147 139 130 127 125 122 123 124 123 122 120 118 116 113 111 109 107 106 106 107 106 102 95
342 332 340 101 70 57 295 295 180 219 192 109 87 95 58 45 70 144 154 165 170 167 161 162 166 160 151 143 136 134 131 130 129 128 128 127 123 119 115 112 111 111 112 111 110 108 109 103 92
338 335 80 95 128 148 171 240 252 195 145 142 134 92 107 138 139 151 154 164 170 166 163 164 166 162 156 150 145 140 137 135 134 131 127 125 123 119 116 114 112 111 111 109 103 100 103 98 85
339 321 70 80 179 223 169 195 232 130 141 145 132 119 110 191 139 164 162 162 169 166 165 168 167 165 162 156 152 148 144 140 137 131 128 128 124 121 118 114 110 107 107 107 105 101 99 92 86
338 7 37 46 284 223 204 184 197 323 234 148 158 103 75 151 162 166 163 165 167 164 168 170 170 169 167 163 158 152 148 147 143 139 137 135 131 127 120 113 108 104 101 100 103 110 116 123 115
359 47 46 24 289 300 3 244 14 264 181 109 105 105 76 166 168 164 166 168 168 166 170 172 173 174 172 167 164 160 156 154 152 152 148 144 139 131 122 114 107 99 92 84 79 89 106 121 138
113 77 180 255 298 335 156 158 292 293 312 56 123 77 131 152 153 156 168 169 170 173 176 177 176 177 177 174 171 170 168 167 166 165 159 156 147 139 130 119 109 96 88 80 75 81 87 82 88
106 93 127 263 303 2 21 335 278 241 282 116 135 152 171 159 158 156 168 171 175 179 183 184 183 183 182 180 178 180 179 180 177 179 177 175 168 165 154 139 118 98 87 83 90 88 87 75 59
153 69 179 259 215 236 181 92 234 247 242 156 133 164 169 158 164 161 164 176 181 184 190 191 191 189 188 187 187 187 189 192 195 192 195 199 195 192 191 178 149 112 92 96 138 129 98 355 336
114 123 206 224 162 258 180 182 232 233 172 181 156 157 162 166 174 176 174 178 184 189 193 196 196 195 192 194 197 196 198 203 208 209 211 213 216 217 217 207 174 146 119 55 258 255 246 269 278
146 187 200 264 271 266 208 212 228 136 245 209 183 162 171 178 184 191 191 190 189 184 189 199 200 198 199 199 198 201 206 213 214 221 224 229 232 237 231 225 218 198 201 0 334 289 286 286 289
167 240 248 277 46 9 207 228 237 189 235 208 193 175 177 187 191 199 204 202 201 199 191 189 200 204 201 203 200 195 204 222 223 229 239 245 252 258 251 252 252 253 257 292 301 279 293 301 301
173 252 281 293 301 286 251 210 212 214 220 211 187 181 188 193 201 206 212 213 209 209 200 193 194 202 207 207 200 199 207 220 205 218 236 247 261 276 260 265 275 277 274 284 293 291 297 298 299
214 271 295 312 305 290 171 230 204 225 225 237 205 189 187 201 206 206 215 218 216 214 212 204 201 196 205 204 199 211 212 202 204 204 202 239 273 299 288 273 283 292 290 286 287 288 289 288 292
285 317 339 297 298 267 219 157 215 208 208 215 212 208 198 200 207 213 221 226 223 218 217 215 207 203 213 209 208 213 221 227 231 233 236 246 257 261 268 273 273 288 290 284 283 284 287 290 292
2 50 340 290 1 281 167 259 258 217 201 206 206 211 217 210 213 217 219 227 226 222 222 219 214 213 216 214 218 222 221 236 246 246 242 250 258 264 256 262 268 279 282 286 286 283 283 289 292
4 246 220 308 218 253 175 262 267 247 202 205 204 207 212 218 220 222 225 228 231 221 230 223 217 218 222 219 225 229 245 246 238 232 233 251 272 279 266 253 259 267 275 277 278 279 284 289 292
239 304 295 240 293 48 300 270 271 238 186 181 187 192 195 206 210 207 209 211 216 213 219 216 216 219 222 223 222 215 224 232 232 244 257 259 261 264 272 257 259 272 276 273 280 286 284 287 291
279 256 254 261 220 338 271 266 272 227 179 168 173 174 173 177 183 181 185 193 200 206 208 207 212 215 218 214 211 215 234 241 242 246 250 257 263 265 264 258 267 267 274 278 292 269 278 290 296
243 269 277 290 250 162 271 260 273 179 183 184 180 177 175 170 170 173 177 185 192 197 202 205 210 217 215 219 217 225 235 239 240 248 248 249 254 262 260 259 267 273 289 291 296 313 313 315 323
230 207 268 234 309 213 260 283 286 178 150 194 187 186 181 182 178 178 182 184 186 189 191 197 198 202 209 215 223 232 234 242 245 252 265 274 258 242 245 262 280 285 302 302 311 320 322 330 337
264 209 247 273 330 260 147 267 294 265 140 198 190 194 191 189 186 184 185 184 187 191 196 199 202 204 211 216 218 234 244 247 224 228 217 213 230 260 267 276 290 304 335 349 351 349 348 345 348
235 232 221 248 239 206 277 127 266 300 161 213 205 212 206 201 196 191 191 191 190 196 198 202 205 208 216 219 223 234 227 230 222 202 199 207 253 230 112 82 72 50 30 19 12 6 4 357 358
243 319 84 46 118 235 224 181 259 196 207 183 222 217 212 209 206 201 198 197 197 195 197 199 204 205 204 209 223 225 227 213 198 184 173 136 118 113 102 87 67 48 31 19 8 1 346 344 343
165 75 312 306 295 239 229 179 224 229 225 209 195 212 213 214 211 201 197 194 190 186 186 188 193 191 194 194 191 196 198 189 177 159 139 126 125 118 102 84 61 34 19 7 0 352 342 338 332
189 158 170 244 251 285 314 236 256 222 229 226 232 231 208 209 210 202 199 189 184 181 180 179 178 178 178 179 176 171 169 166 155 147 138 136 133 120 92 52 28 10 359 352 348 343 339 338 331
250 169 207 210 292 323 230 287 285 221 240 230 217 211 203 205 199 198 193 186 180 176 173 173 170 168 168 172 168 166 165 164 158 155 148 143 134 117 83 20 3 358 349 345 342 338 335 331 328
189 184 253 41 217 252 250 253 236 233 245 251 223 194 190 182 183 187 188 184 179 171 167 168 169 170 168 176 171 164 164 166 163 159 158 153 156 188 320 339 347 350 349 344 337 332 334 331 325
329 287 252 239 164 250 267 259 217 232 259 254 233 195 184 183 184 187 184 181 174 173 173 174 173 172 178 175 169 169 172 173 170 172 172 172 196 251 296 315 334 340 344 338 331 328 327 324 320
32 21 47 43 305 261 228 261 252 226 220 191 124 149 158 157 164 173 177 176 178 178 177 180 186 185 182 182 176 178 180 187 181 182 188 199 218 267 291 311 325 334 336 335 329 326 324 322 318